Location: Newark
(50.4348°N, 30.5552°E)
Time: 11:37:00
(UTC+00:00)

Tiros 1 despin weight - Pass Details

Date: 02 February 2020
Orbit: 594 x 642 km, 48.2° (Epoch: 22 February)

Event Time Altitude Azimuth Distance (km) Brightness Sun altitude
Rises 05:10:47 0° 189° (S) 2,823 ? -3.9°
Reaches altitude 10° 05:14:36 10° 156° (SSE) 1,934 ? -3.4°
Maximum altitude 05:16:00 11° 137° (SE) 1,851 ? -3.2°
Drops below altitude 10° 05:17:25 10° 118° (ESE) 1,945 ? -3.0°
Sets 05:21:18 0° 85° (E) 2,866 ? -2.4°
